Sheridan, WY

1:58 PM MST on November 25, 2014 (GMT -0700)
KWYSHERI2 | Change Station
CLOSE
Current Station
Personal Weather Station
Location: Sheridan, WY
Elevation: 3828 ft
Nearby Weather Stations
Active Advisory: Winter Weather Advisory

Elev 3828 ft 44.81 °N, 106.98 °W | Updated 6 minutes ago

Light Snow
Light Snow Mist
32.9 °F
Feels Like 28 °F
N
5.0
Wind Variable Wind from NNW
Gusts 5.0 mph

Today
High -- | Low -- °F
--% Chance of Precip.
Yesterday
High -- | Low -- °F
Precip. -- in
7:18 AM 4:31 PM
Waxing Crescent, 14% visible
Pressure 29.91 in
Visibility 1.0 miles
Clouds
Windchill 28 °F
Dew Point 31 °F
Humidity 92%
Rainfall 0.18 in
Snow Depth Not available.
UV Not available.
Pollen .10 out of 12
Air Quality Not available.
Flu Activity Not available.
SPECI KSHR 252045Z AUTO 30017KT 1SM -SN BR VV015 01/M01 A2991 RMK AO2 PK WND 31029/2022 P0003 T00061006 TSNO

More Conditions Fewer Conditions

Pressure 29.91 in
Visibility 1.0 miles
Clouds
Windchill 28 °F
Dew Point 31 °F
Humidity 92%
Rainfall 0.18 in
Snow Depth Not available.
UV Not available.
Pollen .10 out of 12
Air Quality Not available.
Flu Activity Not available.
SPECI KSHR 252045Z AUTO 30017KT 1SM -SN BR VV015 01/M01 A2991 RMK AO2 PK WND 31029/2022 P0003 T00061006 TSNO

More Conditions Fewer Conditions

10-Day Weather Forecast

Almanac

Astronomy

Nov. 25, 2014 Rise Set
Actual Time
Civil Twilight
Nautical Twilight
Astronomical Twilight
Moon
Length of Visible Light
Length of Day
Tomorrow will be .
, % of the Moon is Illuminated

Today's Extremes

State Highs State Lows

Community

WunderPhotos

Upload Photos

1,773,585 photos uploaded!

WunderBlogs® & News

Nearby

Air Quality

  Air Quality AQ Index Pollutant
Not available.

Snow Depth

Station Depth Elevation

Earthquake Activity

City Distance Mag. Time & Date
Minimum magnitude displayed is 2.5.

Coastal Water Temperatures

Place Temperature

Nearby Weather Stations